Kiana, AK

2:36 AM AKST on February 27, 2017 (GMT -0900)
Baker Memorial

Weather History for PAIK - October, 2012

Change the Weather History Date:

Sunday, October 14, 2012

  Actual Average (PASK) Record (PASK)
Temperature  
Mean Temperature 24 °F -  
Max Temperature 19 °F 24 °F 41 °F (2013)
Min Temperature 19 °F 16 °F 1 °F (1996)
Degree Days  
Heating Degree Days 40    
Moisture  
Dew Point 19 °F    
Average Humidity 81    
Maximum Humidity 92    
Minimum Humidity 66    
Precipitation  
Precipitation 0.00 in - - ()
Sea Level Pressure  
Sea Level Pressure 29.65 in    
Wind  
Wind Speed 4 mph (NNW)    
Max Wind Speed 12 mph    
Max Gust Speed -    
Visibility 10 miles    
Events Snow    
Averages and records for this station are not official NWS values.
T = Trace of Precipitation, MM = Missing Value Source: NWS Daily Summary

Daily Weather History Graph

Daily Weather History Graph

Search for Another Location

Airport or City:

Trip Planner

Search our weather history database for the weather conditions in past years. The results will help you decide how hot, cold, wet, or windy it might be!

Date:

Astronomy

Oct. 14, 2012 Rise Set
Actual Time 9:40 AM AKDT 7:12 PM AKDT
Civil Twilight 8:46 AM AKDT 8:07 PM AKDT
Nautical Twilight 7:44 AM AKDT 9:08 PM AKDT
Astronomical Twilight 6:40 AM AKDT 10:11 PM AKDT
Moon 8:55 AM AKDT (10/14) 6:27 PM AKDT (10/14)
Length of Visible Light 11h 21m
Length of Day
9h 32m
Waning Crescent, 1% of the Moon is Illuminated
Oct 14
Waning Crescent
Oct 15
New
Oct 21
First Quarter
Oct 29
Full
Nov 6
Last Quarter

Hourly Weather History & Observations

Time (AKDT) Temp. Windchill Dew Point Humidity Pressure Visibility Wind Dir Wind Speed Gust Speed Precip Events Conditions
12:01 AM 21.0 °F 14.6 °F 19.0 °F 92% 29.74 in 10.0 mi NNW 4.6 mph - N/A   Overcast
1:01 AM 23.0 °F 18.4 °F 19.9 °F 88% 29.73 in 10.0 mi North 3.5 mph - N/A   Overcast
2:01 AM 21.9 °F - 19.0 °F 89% 29.72 in 10.0 mi Calm Calm - N/A   Overcast
3:01 AM 21.9 °F - 19.0 °F 89% 29.71 in 10.0 mi Calm Calm - N/A   Overcast
4:01 AM 21.9 °F 17.2 °F 19.0 °F 89% 29.70 in 10.0 mi NNW 3.5 mph - N/A   Overcast
5:01 AM 23.0 °F - 19.9 °F 88% 29.69 in 10.0 mi Calm Calm - N/A   Overcast
6:01 AM 23.0 °F - 19.9 °F 88% 29.67 in 10.0 mi Calm Calm - N/A   Overcast
7:01 AM 23.0 °F - 19.9 °F 88% 29.66 in 10.0 mi Calm Calm - N/A   Overcast
8:01 AM 24.1 °F - 21.0 °F 88% 29.65 in 10.0 mi Calm Calm - N/A   Overcast
9:01 AM 24.1 °F 19.7 °F 19.9 °F 84% 29.64 in 10.0 mi NNE 3.5 mph - N/A   Overcast
10:01 AM 23.0 °F 13.9 °F 19.4 °F 86% 29.51 in 9.0 mi NNW 8.1 mph - N/A Snow Light Snow
10:07 AM 23.0 °F 13.9 °F 19.9 °F 88% 29.64 in 9.0 mi NNW 8.1 mph - N/A Snow Light Snow
10:46 AM 23.0 °F 13.9 °F 19.4 °F 86% 29.51 in 9.0 mi NNW 8.1 mph - N/A Snow Light Snow
11:01 AM 23.0 °F 13.9 °F 19.0 °F 85% 29.64 in 10.0 mi NNW 8.1 mph - N/A   Mostly Cloudy
12:01 PM 24.1 °F - 19.9 °F 84% 29.64 in 10.0 mi Calm Calm - N/A   Mostly Cloudy
1:01 PM 26.1 °F 20.5 °F 21.0 °F 81% 29.64 in 10.0 mi NW 4.6 mph - N/A   Clear
2:01 PM 30.0 °F 22.4 °F 19.9 °F 66% 29.62 in 10.0 mi NNW 8.1 mph - N/A   Mostly Cloudy
3:01 PM 30.0 °F 22.4 °F 19.9 °F 66% 29.62 in 10.0 mi NW 8.1 mph - N/A   Mostly Cloudy
4:01 PM 30.0 °F 21.1 °F 19.9 °F 66% 29.62 in 10.0 mi NW 10.4 mph - N/A   Scattered Clouds
5:01 PM 28.9 °F 21.1 °F 19.9 °F 69% 29.62 in 10.0 mi NW 8.1 mph - N/A   Clear
6:01 PM 27.0 °F 18.0 °F 19.0 °F 72% 29.62 in 10.0 mi NW 9.2 mph - N/A   Scattered Clouds
7:01 PM 27.0 °F 19.5 °F 19.0 °F 72% 29.63 in 10.0 mi NNW 6.9 mph - N/A   Overcast
8:01 PM 23.0 °F 17.0 °F 17.1 °F 78% 29.64 in 10.0 mi NW 4.6 mph - N/A   Mostly Cloudy
9:01 PM 19.9 °F 9.3 °F 14.0 °F 78% 29.64 in 10.0 mi NW 9.2 mph - N/A   Clear
10:01 PM 21.0 °F 10.6 °F 14.0 °F 74% 29.64 in 10.0 mi NW 9.2 mph - N/A   Clear
11:01 PM 19.9 °F 7.9 °F 12.0 °F 71% 29.64 in 10.0 mi NW 11.5 mph - N/A   Clear